ABY104 OBBI-OMSJ

Flight info

Callsign ABY104
Flight time 1h 53m
Altitude 33000
Route BHR N697 KFA H732 EMOGA DCT GETOT Q212 KIA M440 SITER DCT RIBOT DCT GOLGU DCT RIGIL G783 ASPED
Aircraft A320/M-SDE3FGHIRWY/LB1

Departure

Time 2026-04-20 18:50
Airport Bahrain International Airport (OBBI)

Arrival

Time 2026-04-20 20:44
Airport Sharjah International Airport (OMSJ)
Time Latitude Longitude Altitude Speed Heading
2026-04-20 17:46 26.27163 50.62430 17 ft 0 kts 212°
2026-04-20 18:40 26.27164 50.62430 17 ft 2 kts 212°
2026-04-20 18:40 26.27178 50.62440 18 ft 2 kts 212°
2026-04-20 18:40 26.27193 50.62450 18 ft 2 kts 212°
2026-04-20 18:40 26.27207 50.62460 19 ft 2 kts 212°
2026-04-20 18:41 26.27222 50.62470 19 ft 2 kts 212°
2026-04-20 18:41 26.27237 50.62480 19 ft 2 kts 212°
2026-04-20 18:41 26.27251 50.62490 18 ft 2 kts 212°
2026-04-20 18:41 26.27266 50.62500 20 ft 2 kts 212°
2026-04-20 18:42 26.27271 50.62504 21 ft 0 kts 211°
2026-04-20 18:45 26.27261 50.62504 20 ft 3 kts 176°
2026-04-20 18:45 26.27248 50.62513 18 ft 3 kts 144°
2026-04-20 18:45 26.27221 50.62546 17 ft 8 kts 126°
2026-04-20 18:45 26.27206 50.62617 17 ft 11 kts 66°
2026-04-20 18:46 26.27261 50.62695 17 ft 15 kts 84°
2026-04-20 18:46 26.27209 50.62807 18 ft 19 kts 124°
2026-04-20 18:46 26.27124 50.62940 20 ft 23 kts 123°
2026-04-20 18:46 26.27031 50.63103 17 ft 26 kts 123°
2026-04-20 18:47 26.26929 50.63278 15 ft 27 kts 122°
2026-04-20 18:47 26.26825 50.63460 15 ft 28 kts 123°
2026-04-20 18:47 26.26724 50.63632 16 ft 22 kts 123°
2026-04-20 18:47 26.26681 50.63737 17 ft 11 kts 98°
2026-04-20 18:48 26.26683 50.63779 17 ft 0 kts 80°
2026-04-20 18:48 26.26684 50.63788 19 ft 3 kts 76°
2026-04-20 18:48 26.26700 50.63823 17 ft 7 kts 58°
2026-04-20 18:49 26.26747 50.63873 16 ft 11 kts 41°
2026-04-20 18:49 26.26782 50.63884 16 ft 3 kts 304°
2026-04-20 18:49 26.26783 50.63882 16 ft 0 kts 300°
2026-04-20 18:49 26.26875 50.63724 18 ft 60 kts 303°
2026-04-20 18:50 26.27225 50.63120 17 ft 123 kts 303°
2026-04-20 18:50 26.27788 50.62146 30 ft 170 kts 302°
2026-04-20 18:50 26.28420 50.61068 779 ft 161 kts 305°
2026-04-20 18:50 26.29032 50.60002 1337 ft 172 kts 307°
2026-04-20 18:51 26.29743 50.58835 1738 ft 192 kts 306°
2026-04-20 18:51 26.30499 50.57502 1965 ft 215 kts 303°
2026-04-20 18:51 26.31313 50.55997 2151 ft 240 kts 303°
2026-04-20 18:51 26.32225 50.54329 2436 ft 264 kts 303°
2026-04-20 18:52 26.33035 50.52436 2959 ft 278 kts 283°
2026-04-20 18:52 26.33087 50.50283 3718 ft 281 kts 259°
2026-04-20 18:52 26.32714 50.48173 4586 ft 279 kts 257°
2026-04-20 18:52 26.32324 50.46077 5527 ft 273 kts 257°
2026-04-20 18:53 26.32006 50.44010 6500 ft 268 kts 260°
2026-04-20 18:53 26.31768 50.41966 7344 ft 266 kts 261°
2026-04-20 18:53 26.31518 50.39915 7818 ft 267 kts 260°
2026-04-20 18:53 26.31229 50.37870 8492 ft 267 kts 259°
2026-04-20 18:54 26.30904 50.35828 9261 ft 268 kts 258°
2026-04-20 18:54 26.30619 50.33764 9983 ft 271 kts 265°
2026-04-20 18:54 26.30784 50.31660 10640 ft 277 kts 280°
2026-04-20 18:54 26.31435 50.29600 11119 ft 291 kts 288°
2026-04-20 18:55 26.32216 50.27424 11255 ft 314 kts 288°
2026-04-20 18:55 26.33008 50.25085 11531 ft 328 kts 286°
2026-04-20 18:55 26.33733 50.22654 12088 ft 333 kts 285°
2026-04-20 18:55 26.34469 50.20202 12714 ft 336 kts 286°
2026-04-20 18:56 26.35270 50.17734 13343 ft 340 kts 288°
2026-04-20 18:56 26.36161 50.15281 13933 ft 343 kts 289°
2026-04-20 18:56 26.37045 50.12796 14522 ft 344 kts 288°
2026-04-20 18:56 26.37880 50.10287 15116 ft 346 kts 287°
2026-04-20 18:57 26.38715 50.07761 15710 ft 348 kts 287°
2026-04-20 18:57 26.39557 50.05268 16275 ft 350 kts 288°
2026-04-20 18:57 26.40437 50.02729 16866 ft 352 kts 288°
2026-04-20 18:57 26.41336 50.00188 17474 ft 354 kts 289°
2026-04-20 18:58 26.42168 49.97865 17984 ft 355 kts 289°
2026-04-20 18:58 26.43094 49.95292 18477 ft 358 kts 289°
2026-04-20 18:58 26.43722 49.93548 18777 ft 359 kts 289°
2026-04-20 18:58 26.44960 49.90102 19357 ft 363 kts 289°
2026-04-20 18:59 26.45902 49.87470 19793 ft 366 kts 289°
2026-04-20 18:59 26.46846 49.84826 20224 ft 369 kts 289°
2026-04-20 18:59 26.47801 49.82153 20636 ft 371 kts 288°
2026-04-20 18:59 26.48581 49.79408 21051 ft 372 kts 279°
2026-04-20 19:00 26.48942 49.76549 21456 ft 373 kts 276°
2026-04-20 19:00 26.49238 49.73670 21852 ft 374 kts 267°
2026-04-20 19:00 26.48801 49.70890 22224 ft 376 kts 252°
2026-04-20 19:00 26.47859 49.68147 22616 ft 379 kts 247°
2026-04-20 19:01 26.46777 49.65453 23003 ft 382 kts 246°
2026-04-20 19:01 26.45704 49.62732 23404 ft 384 kts 248°
2026-04-20 19:01 26.44698 49.59960 23744 ft 386 kts 249°
2026-04-20 19:01 26.43709 49.57168 24085 ft 388 kts 249°
2026-04-20 19:02 26.42778 49.54339 24432 ft 389 kts 251°
2026-04-20 19:02 26.41914 49.51472 24774 ft 391 kts 252°
2026-04-20 19:02 26.41079 49.48583 25108 ft 392 kts 253°
2026-04-20 19:02 26.40252 49.45679 25447 ft 393 kts 253°
2026-04-20 19:03 26.39426 49.42774 25802 ft 394 kts 253°
2026-04-20 19:03 26.38589 49.39850 26149 ft 396 kts 253°
2026-04-20 19:03 26.37739 49.36928 26484 ft 397 kts 253°
2026-04-20 19:03 26.36874 49.33997 26820 ft 399 kts 252°
2026-04-20 19:04 26.35998 49.31058 27134 ft 400 kts 252°
2026-04-20 19:04 26.35116 49.28108 27466 ft 402 kts 252°
2026-04-20 19:04 26.34234 49.25145 27792 ft 403 kts 253°
2026-04-20 19:04 26.33366 49.22219 27892 ft 403 kts 253°
2026-04-20 19:05 26.32486 49.19255 27903 ft 403 kts 253°
2026-04-20 19:05 26.31604 49.16292 27905 ft 402 kts 253°
2026-04-20 19:05 26.30727 49.13355 27904 ft 393 kts 253°
2026-04-20 19:05 26.29873 49.10491 27909 ft 387 kts 253°
2026-04-20 19:06 26.29028 49.07659 27909 ft 384 kts 252°
2026-04-20 19:06 26.28181 49.04821 27915 ft 390 kts 254°
2026-04-20 19:06 26.27536 49.01856 27912 ft 399 kts 258°
2026-04-20 19:06 26.26957 48.98790 27915 ft 409 kts 258°
2026-04-20 19:07 26.26370 48.95677 27916 ft 413 kts 258°
2026-04-20 19:07 26.25777 48.92535 27914 ft 414 kts 258°
2026-04-20 19:07 26.25180 48.89398 27914 ft 415 kts 258°
2026-04-20 19:07 26.24581 48.86255 27914 ft 415 kts 258°
2026-04-20 19:08 26.24183 48.84172 27915 ft 415 kts 258°
2026-04-20 19:08 26.22783 48.76826 27916 ft 415 kts 258°
2026-04-20 19:08 26.22181 48.73685 27920 ft 415 kts 258°
2026-04-20 19:09 26.21580 48.70541 27920 ft 415 kts 258°
2026-04-20 19:09 26.20981 48.67397 27921 ft 415 kts 258°
2026-04-20 19:09 26.20386 48.64293 27922 ft 415 kts 258°
2026-04-20 19:09 26.19774 48.61112 27924 ft 415 kts 258°
2026-04-20 19:10 26.19175 48.58005 27924 ft 415 kts 258°
2026-04-20 19:10 26.18569 48.54865 27925 ft 415 kts 258°
2026-04-20 19:10 26.17964 48.51722 27925 ft 415 kts 258°
2026-04-20 19:10 26.17359 48.48576 27926 ft 415 kts 258°
2026-04-20 19:11 26.16752 48.45432 27924 ft 415 kts 258°
2026-04-20 19:11 26.16143 48.42292 27927 ft 415 kts 258°
2026-04-20 19:11 26.15535 48.39156 27927 ft 415 kts 258°
2026-04-20 19:11 26.14925 48.36013 27927 ft 415 kts 258°
2026-04-20 19:12 26.14316 48.32874 27930 ft 415 kts 258°
2026-04-20 19:12 26.13705 48.29733 27929 ft 415 kts 258°
2026-04-20 19:12 26.13093 48.26599 27931 ft 415 kts 258°
2026-04-20 19:12 26.12480 48.23465 27932 ft 414 kts 258°
2026-04-20 19:13 26.11833 48.20345 27934 ft 414 kts 254°
2026-04-20 19:13 26.10784 48.17359 27933 ft 415 kts 244°
2026-04-20 19:13 26.09250 48.14625 27937 ft 418 kts 234°
2026-04-20 19:13 26.07387 48.12127 28257 ft 419 kts 233°
2026-04-20 19:14 26.05528 48.09641 28703 ft 417 kts 233°
2026-04-20 19:14 26.03685 48.07157 29135 ft 415 kts 234°
2026-04-20 19:14 26.01858 48.04681 29568 ft 413 kts 234°
2026-04-20 19:14 26.00042 48.02219 29993 ft 411 kts 234°
2026-04-20 19:15 25.98227 47.99768 30364 ft 409 kts 234°
2026-04-20 19:15 25.96420 47.97338 30715 ft 407 kts 234°
2026-04-20 19:15 25.94615 47.94913 31062 ft 406 kts 234°
2026-04-20 19:15 25.92818 47.92500 31405 ft 404 kts 234°
2026-04-20 19:16 25.91053 47.90131 31731 ft 403 kts 235°
2026-04-20 19:16 25.89271 47.87736 32078 ft 402 kts 235°
2026-04-20 19:16 25.87491 47.85349 32405 ft 401 kts 235°
2026-04-20 19:16 25.85714 47.82971 32744 ft 400 kts 235°
2026-04-20 19:17 25.83940 47.80598 32923 ft 400 kts 235°
2026-04-20 19:17 25.80393 47.75856 32941 ft 399 kts 235°
2026-04-20 19:18 25.76855 47.71127 32944 ft 399 kts 235°
2026-04-20 19:18 25.73308 47.66391 32944 ft 399 kts 235°
2026-04-20 19:19 25.69764 47.61658 32948 ft 399 kts 235°
2026-04-20 19:19 25.66162 47.56972 32948 ft 404 kts 228°
2026-04-20 19:19 25.63830 47.55168 32947 ft 417 kts 212°
2026-04-20 19:20 25.61013 47.54218 32941 ft 434 kts 194°
2026-04-20 19:20 25.57941 47.54334 32935 ft 452 kts 176°
2026-04-20 19:20 25.54887 47.55056 32929 ft 455 kts 175°
2026-04-20 19:21 25.48693 47.56627 32922 ft 457 kts 175°
2026-04-20 19:21 25.42483 47.58197 32922 ft 458 kts 175°
2026-04-20 19:22 25.36256 47.59755 32921 ft 461 kts 173°
2026-04-20 19:22 25.33215 47.61027 32923 ft 476 kts 158°
2026-04-20 19:22 25.30511 47.63218 32919 ft 490 kts 141°
2026-04-20 19:23 25.25745 47.68667 32916 ft 494 kts 139°
2026-04-20 19:23 25.21049 47.74148 32906 ft 495 kts 139°
2026-04-20 19:24 25.16305 47.79671 32914 ft 496 kts 139°
2026-04-20 19:24 25.11534 47.85178 32914 ft 496 kts 140°
2026-04-20 19:25 25.06753 47.90673 32912 ft 496 kts 140°
2026-04-20 19:25 25.01975 47.96167 32910 ft 496 kts 140°
2026-04-20 19:26 24.98005 48.00740 32908 ft 496 kts 140°
2026-04-20 19:26 24.93236 48.06237 32912 ft 496 kts 140°
2026-04-20 19:27 24.88455 48.11714 32912 ft 495 kts 140°
2026-04-20 19:27 24.83682 48.17179 32911 ft 495 kts 140°
2026-04-20 19:28 24.78913 48.22641 32906 ft 494 kts 140°
2026-04-20 19:28 24.74146 48.28091 32903 ft 494 kts 139°
2026-04-20 19:29 24.69380 48.33529 32903 ft 494 kts 140°
2026-04-20 19:29 24.64618 48.38961 32891 ft 493 kts 139°
2026-04-20 19:30 24.59848 48.44391 32890 ft 493 kts 139°
2026-04-20 19:30 24.55093 48.49800 32888 ft 492 kts 139°
2026-04-20 19:31 24.50337 48.55209 32890 ft 491 kts 139°
2026-04-20 19:31 24.45590 48.60595 32881 ft 491 kts 139°
2026-04-20 19:32 24.40845 48.65976 32878 ft 490 kts 139°
2026-04-20 19:32 24.36103 48.71344 32874 ft 490 kts 139°
2026-04-20 19:33 24.31362 48.76699 32866 ft 489 kts 139°
2026-04-20 19:33 24.26627 48.82049 32868 ft 489 kts 139°
2026-04-20 19:34 24.21898 48.87402 32856 ft 489 kts 137°
2026-04-20 19:34 24.18062 48.93618 32853 ft 499 kts 117°
2026-04-20 19:35 24.15819 49.00734 32862 ft 501 kts 109°
2026-04-20 19:35 24.13738 49.08059 33053 ft 506 kts 109°
2026-04-20 19:35 24.12682 49.11741 33197 ft 507 kts 109°
2026-04-20 19:36 24.11625 49.15417 33352 ft 507 kts 109°
2026-04-20 19:36 24.10564 49.19105 33506 ft 508 kts 109°
2026-04-20 19:36 24.09504 49.22797 33659 ft 508 kts 109°
2026-04-20 19:36 24.08448 49.26480 33816 ft 508 kts 109°
2026-04-20 19:37 24.07388 49.30172 33957 ft 509 kts 109°
2026-04-20 19:37 24.06325 49.33872 34105 ft 510 kts 109°
2026-04-20 19:37 24.05263 49.37579 34230 ft 511 kts 109°
2026-04-20 19:37 24.04196 49.41295 34364 ft 513 kts 109°
2026-04-20 19:38 24.03122 49.45021 34507 ft 514 kts 109°
2026-04-20 19:38 24.02046 49.48746 34644 ft 515 kts 109°
2026-04-20 19:38 24.00965 49.52492 34791 ft 517 kts 109°
2026-04-20 19:39 23.98800 49.59999 34847 ft 518 kts 109°
2026-04-20 19:39 23.96623 49.67508 34850 ft 518 kts 109°
2026-04-20 19:40 23.94442 49.75025 34843 ft 519 kts 109°
2026-04-20 19:40 23.92276 49.82545 34842 ft 519 kts 109°
2026-04-20 19:41 23.90094 49.90062 34843 ft 519 kts 109°
2026-04-20 19:41 23.87895 49.97575 34843 ft 519 kts 109°
2026-04-20 19:42 23.85697 50.05098 34849 ft 520 kts 109°
2026-04-20 19:42 23.83497 50.12566 34833 ft 520 kts 109°
2026-04-20 19:43 23.81275 50.20082 34837 ft 520 kts 109°
2026-04-20 19:43 23.79056 50.27603 34827 ft 521 kts 109°
2026-04-20 19:44 23.76842 50.35141 34838 ft 521 kts 109°
2026-04-20 19:44 23.74619 50.42681 34834 ft 522 kts 109°
2026-04-20 19:45 23.72391 50.50218 34834 ft 522 kts 109°
2026-04-20 19:45 23.70155 50.57755 34835 ft 522 kts 109°
2026-04-20 19:46 23.67918 50.65299 34837 ft 523 kts 109°
2026-04-20 19:46 23.65673 50.72849 34836 ft 523 kts 109°
2026-04-20 19:47 23.63412 50.80399 34827 ft 524 kts 109°
2026-04-20 19:47 23.61152 50.87947 34833 ft 524 kts 109°
2026-04-20 19:48 23.58919 50.95446 34829 ft 524 kts 109°
2026-04-20 19:48 23.56661 51.02995 34835 ft 524 kts 109°
2026-04-20 19:49 23.54393 51.10547 34826 ft 524 kts 109°
2026-04-20 19:49 23.52122 51.18083 34834 ft 524 kts 109°
2026-04-20 19:50 23.49846 51.25621 34833 ft 524 kts 109°
2026-04-20 19:50 23.47571 51.33127 34829 ft 524 kts 109°
2026-04-20 19:51 23.45275 51.40689 34823 ft 524 kts 109°
2026-04-20 19:51 23.42992 51.48215 34829 ft 524 kts 109°
2026-04-20 19:52 23.40717 51.55694 34832 ft 524 kts 108°
2026-04-20 19:52 23.38413 51.63267 34828 ft 523 kts 108°
2026-04-20 19:53 23.36123 51.70776 34824 ft 523 kts 108°
2026-04-20 19:53 23.33827 51.78284 34827 ft 523 kts 108°
2026-04-20 19:54 23.31528 51.85781 34830 ft 523 kts 108°
2026-04-20 19:54 23.29241 51.93232 34826 ft 523 kts 108°
2026-04-20 19:55 23.26935 52.00719 34830 ft 522 kts 108°
2026-04-20 19:55 23.24623 52.08212 34831 ft 522 kts 108°
2026-04-20 19:56 23.22692 52.14478 34835 ft 522 kts 108°
2026-04-20 19:56 23.20023 52.23181 34836 ft 522 kts 108°
2026-04-20 19:57 23.17710 52.30664 34834 ft 522 kts 108°
2026-04-20 19:57 23.16044 52.38297 34828 ft 518 kts 91°
2026-04-20 19:58 23.16447 52.45996 34829 ft 507 kts 72°
2026-04-20 19:58 23.18318 52.53325 34824 ft 507 kts 75°
2026-04-20 19:59 23.19197 52.60960 34826 ft 510 kts 79°
2026-04-20 19:59 23.20060 52.68610 34827 ft 510 kts 78°
2026-04-20 20:00 23.20972 52.76251 34829 ft 509 kts 78°
2026-04-20 20:00 23.21889 52.83878 34833 ft 509 kts 78°
2026-04-20 20:01 23.22767 52.91523 34841 ft 509 kts 78°
2026-04-20 20:01 23.23638 52.99154 34840 ft 509 kts 78°
2026-04-20 20:02 23.24521 53.06784 34842 ft 508 kts 78°
2026-04-20 20:02 23.25407 53.14405 34850 ft 508 kts 77°
2026-04-20 20:03 23.26287 53.22030 34848 ft 508 kts 77°
2026-04-20 20:03 23.27153 53.29604 34851 ft 508 kts 77°
2026-04-20 20:04 23.28024 53.37228 34862 ft 508 kts 77°
2026-04-20 20:04 23.28893 53.44845 34870 ft 508 kts 77°
2026-04-20 20:05 23.29755 53.52465 34870 ft 507 kts 77°
2026-04-20 20:05 23.30611 53.60039 34871 ft 507 kts 77°
2026-04-20 20:06 23.31476 53.67636 34876 ft 505 kts 77°
2026-04-20 20:06 23.32334 53.75213 34872 ft 504 kts 77°
2026-04-20 20:07 23.33172 53.82786 34877 ft 503 kts 77°
2026-04-20 20:07 23.33996 53.90338 34878 ft 502 kts 78°
2026-04-20 20:08 23.34816 53.97875 34882 ft 501 kts 78°
2026-04-20 20:08 23.35650 54.05382 34880 ft 500 kts 78°
2026-04-20 20:09 23.36478 54.12884 34878 ft 499 kts 78°
2026-04-20 20:09 23.37287 54.20377 34880 ft 498 kts 78°
2026-04-20 20:10 23.38089 54.27850 34880 ft 497 kts 78°
2026-04-20 20:10 23.38891 54.35318 34881 ft 496 kts 78°
2026-04-20 20:11 23.39691 54.42767 34874 ft 496 kts 78°
2026-04-20 20:11 23.40481 54.50171 34869 ft 495 kts 78°
2026-04-20 20:12 23.41257 54.57620 34865 ft 495 kts 78°
2026-04-20 20:12 23.42041 54.65068 34864 ft 495 kts 78°
2026-04-20 20:13 23.43408 54.76186 34866 ft 493 kts 76°
2026-04-20 20:13 23.44436 54.83562 34863 ft 493 kts 76°
2026-04-20 20:14 23.45434 54.90952 34863 ft 493 kts 76°
2026-04-20 20:14 23.46391 54.98353 34865 ft 493 kts 77°
2026-04-20 20:15 23.47348 55.05742 34865 ft 493 kts 76°
2026-04-20 20:15 23.48163 55.11929 34865 ft 493 kts 76°
2026-04-20 20:16 23.49109 55.19273 34863 ft 492 kts 77°
2026-04-20 20:16 23.50060 55.26654 34866 ft 491 kts 75°
2026-04-20 20:17 23.50907 55.30209 34863 ft 480 kts 62°
2026-04-20 20:17 23.52341 55.33438 34862 ft 469 kts 51°
2026-04-20 20:17 23.54262 55.36251 34856 ft 458 kts 40°
2026-04-20 20:17 23.56577 55.38568 34854 ft 447 kts 29°
2026-04-20 20:18 23.59177 55.40345 34845 ft 436 kts 19°
2026-04-20 20:18 23.61956 55.41566 34852 ft 427 kts
2026-04-20 20:18 23.67670 55.43266 34843 ft 426 kts
2026-04-20 20:19 23.73402 55.44963 34842 ft 428 kts
2026-04-20 20:19 23.79155 55.46672 34841 ft 429 kts
2026-04-20 20:20 23.84920 55.48385 34842 ft 430 kts
2026-04-20 20:20 23.90702 55.50101 34845 ft 431 kts
2026-04-20 20:21 23.96490 55.51821 34848 ft 431 kts
2026-04-20 20:21 24.02061 55.54482 34699 ft 448 kts 28°
2026-04-20 20:22 24.04526 55.56620 34470 ft 456 kts 37°
2026-04-20 20:22 24.06876 55.58959 34235 ft 457 kts 37°
2026-04-20 20:22 24.09230 55.61300 34007 ft 458 kts 37°
2026-04-20 20:22 24.11589 55.63647 33775 ft 459 kts 38°
2026-04-20 20:23 24.13953 55.65996 33512 ft 459 kts 38°
2026-04-20 20:23 24.16316 55.68339 33255 ft 458 kts 38°
2026-04-20 20:23 24.18671 55.70672 32992 ft 456 kts 38°
2026-04-20 20:23 24.21025 55.73007 32742 ft 455 kts 38°
2026-04-20 20:24 24.23367 55.75338 32481 ft 454 kts 38°
2026-04-20 20:24 24.25694 55.77654 31911 ft 452 kts 39°
2026-04-20 20:24 24.28016 55.79967 31326 ft 450 kts 39°
2026-04-20 20:24 24.30332 55.82274 30753 ft 449 kts 39°
2026-04-20 20:25 24.32640 55.84570 30172 ft 448 kts 39°
2026-04-20 20:25 24.34944 55.86860 29538 ft 447 kts 39°
2026-04-20 20:25 24.37239 55.89145 28984 ft 443 kts 39°
2026-04-20 20:25 24.39509 55.91407 28464 ft 440 kts 39°
2026-04-20 20:26 24.41767 55.93657 27934 ft 436 kts 39°
2026-04-20 20:26 24.44003 55.95886 27424 ft 433 kts 39°
2026-04-20 20:26 24.46225 55.98101 26916 ft 430 kts 39°
2026-04-20 20:26 24.48422 56.00296 26430 ft 426 kts 39°
2026-04-20 20:27 24.50608 56.02480 25945 ft 423 kts 39°
2026-04-20 20:27 24.52776 56.04647 25467 ft 420 kts 39°
2026-04-20 20:27 24.54924 56.06795 25034 ft 416 kts 39°
2026-04-20 20:27 24.57052 56.08927 24854 ft 416 kts 39°
2026-04-20 20:28 24.59235 56.11112 24745 ft 435 kts 39°
2026-04-20 20:28 24.61526 56.13402 23942 ft 450 kts 40°
2026-04-20 20:28 24.63827 56.15710 23573 ft 442 kts 40°
2026-04-20 20:28 24.66066 56.17964 23214 ft 433 kts 40°
2026-04-20 20:29 24.68277 56.20183 22690 ft 428 kts 39°
2026-04-20 20:29 24.70651 56.22078 22199 ft 418 kts 25°
2026-04-20 20:29 24.73328 56.23193 21708 ft 407 kts
2026-04-20 20:29 24.76107 56.23478 21191 ft 397 kts 353°
2026-04-20 20:30 24.78807 56.23016 20680 ft 391 kts 344°
2026-04-20 20:30 24.81444 56.22385 20039 ft 385 kts 344°
2026-04-20 20:30 24.84041 56.21757 19209 ft 380 kts 344°
2026-04-20 20:30 24.86607 56.21135 18408 ft 376 kts 345°
2026-04-20 20:31 24.89100 56.20532 17582 ft 372 kts 345°
2026-04-20 20:31 24.91607 56.19926 16756 ft 366 kts 345°
2026-04-20 20:31 24.94079 56.19327 15987 ft 360 kts 346°
2026-04-20 20:31 24.96502 56.18740 15238 ft 354 kts 346°
2026-04-20 20:32 24.98894 56.18157 14501 ft 349 kts 346°
2026-04-20 20:32 25.01246 56.17586 13788 ft 343 kts 346°
2026-04-20 20:32 25.03557 56.17026 13003 ft 338 kts 347°
2026-04-20 20:32 25.05839 56.16475 12187 ft 334 kts 347°
2026-04-20 20:33 25.08096 56.15920 11385 ft 329 kts 345°
2026-04-20 20:33 25.10136 56.14928 11029 ft 312 kts 326°
2026-04-20 20:33 25.11695 56.13396 10827 ft 293 kts 309°
2026-04-20 20:33 25.12721 56.11503 10387 ft 286 kts 295°
2026-04-20 20:34 25.13510 56.09499 9857 ft 282 kts 295°
2026-04-20 20:34 25.14264 56.07541 9440 ft 274 kts 295°
2026-04-20 20:34 25.14998 56.05625 8832 ft 267 kts 295°
2026-04-20 20:34 25.15721 56.03741 7916 ft 268 kts 295°
2026-04-20 20:35 25.16438 56.01815 7683 ft 276 kts 289°
2026-04-20 20:35 25.16738 55.99715 7564 ft 271 kts 278°
2026-04-20 20:35 25.16886 55.97739 7440 ft 249 kts 277°
2026-04-20 20:35 25.17017 55.95880 7196 ft 239 kts 278°
2026-04-20 20:36 25.17150 55.94048 6812 ft 241 kts 278°
2026-04-20 20:36 25.17288 55.92188 6351 ft 247 kts 278°
2026-04-20 20:36 25.17438 55.90214 5853 ft 263 kts 277°
2026-04-20 20:36 25.17582 55.88279 5795 ft 249 kts 277°
2026-04-20 20:37 25.17719 55.86389 5739 ft 241 kts 277°
2026-04-20 20:37 25.17852 55.84556 5684 ft 240 kts 277°
2026-04-20 20:37 25.17985 55.82725 5581 ft 238 kts 277°
2026-04-20 20:37 25.18117 55.80908 5269 ft 237 kts 277°
2026-04-20 20:38 25.18230 55.79361 4995 ft 237 kts 277°
2026-04-20 20:38 25.18440 55.77594 4685 ft 234 kts 288°
2026-04-20 20:38 25.19103 55.75978 4376 ft 230 kts 304°
2026-04-20 20:38 25.19964 55.74496 4026 ft 228 kts 304°
2026-04-20 20:39 25.20819 55.73021 3560 ft 227 kts 304°
2026-04-20 20:39 25.21661 55.71567 3239 ft 220 kts 304°
2026-04-20 20:39 25.22456 55.70193 3135 ft 207 kts 304°
2026-04-20 20:39 25.23221 55.68870 3067 ft 199 kts 304°
2026-04-20 20:40 25.23936 55.67633 2951 ft 186 kts 304°
2026-04-20 20:40 25.24624 55.66446 2746 ft 181 kts 304°
2026-04-20 20:40 25.25294 55.65288 2529 ft 177 kts 304°
2026-04-20 20:40 25.25952 55.64148 2314 ft 174 kts 303°
2026-04-20 20:41 25.26600 55.63028 2083 ft 172 kts 303°
2026-04-20 20:41 25.27233 55.61933 1877 ft 165 kts 303°
2026-04-20 20:41 25.27837 55.60887 1683 ft 158 kts 303°
2026-04-20 20:41 25.28403 55.59908 1490 ft 151 kts 303°
2026-04-20 20:42 25.28964 55.58936 1294 ft 148 kts 303°
2026-04-20 20:42 25.29515 55.57983 1061 ft 147 kts 302°
2026-04-20 20:42 25.30041 55.57023 873 ft 145 kts 302°
2026-04-20 20:42 25.30472 55.56278 739 ft 146 kts 303°
2026-04-20 20:43 25.30996 55.55401 589 ft 145 kts 303°
2026-04-20 20:43 25.31520 55.54509 423 ft 145 kts 302°
2026-04-20 20:43 25.32049 55.53577 225 ft 145 kts 302°
2026-04-20 20:43 25.32589 55.52650 119 ft 133 kts 301°
2026-04-20 20:44 25.33008 55.51926 114 ft 90 kts 302°
2026-04-20 20:44 25.33263 55.51483 116 ft 48 kts 302°
2026-04-20 20:44 25.33401 55.51244 116 ft 28 kts 303°
2026-04-20 20:44 25.33463 55.51079 115 ft 15 kts 269°
2026-04-20 20:45 25.33430 55.50991 114 ft 12 kts 221°
2026-04-20 20:45 25.33366 55.50947 113 ft 10 kts 211°
2026-04-20 20:45 25.33313 55.50908 112 ft 9 kts 212°
2026-04-20 20:45 25.33246 55.50861 112 ft 14 kts 212°
2026-04-20 20:46 25.33158 55.50862 115 ft 15 kts 129°
2026-04-20 20:46 25.33093 55.50974 114 ft 20 kts 122°
2026-04-20 20:46 25.33009 55.51118 115 ft 24 kts 122°
2026-04-20 20:46 25.32910 55.51290 113 ft 29 kts 122°
2026-04-20 20:47 25.32804 55.51474 112 ft 28 kts 122°
2026-04-20 20:47 25.32703 55.51650 112 ft 27 kts 122°
2026-04-20 20:47 25.32601 55.51828 114 ft 27 kts 122°
2026-04-20 20:47 25.32499 55.52006 113 ft 27 kts 122°
2026-04-20 20:48 25.32417 55.52149 114 ft 17 kts 122°
2026-04-20 20:48 25.32354 55.52252 112 ft 12 kts 146°
2026-04-20 20:48 25.32271 55.52226 113 ft 13 kts 210°
2026-04-20 20:48 25.32228 55.52196 114 ft 5 kts 211°
2026-04-20 20:49 25.32221 55.52191 114 ft 0 kts 212°